Date String (YYYY-MM-DD hh:mm:ss) UTC,Instrument flags,Ambient pressure (hPa),Sample flow (lpm),Bypass flow (lpm),Sample temperature (°C),Ambient temperature (°C),ASC tube jacket temperature (°C),LED temperature (°C),Box temperature (°C),Sample RH (%),Span deviation,Mass concentration (μg/m³),Mass concentration (μg/m³),Mass concentration (μg/m³)
DateTimeUTC,F1_M11,P_M11,Q1_M11,Q2_M11,T1_M11,T2_M11,T3_M11,T4_M11,T5_M11,U1_M11,ZSPAN_M11,X0_M11,X2_M11,X1_M11
2022-12-03 01:00:00,,0825.4,5.01,0.00,21.7,20.2,00.0,30.6,23.2,07.8,0000.0,0004.10,0000.76,0000.44
2022-12-03 01:01:00,,0825.5,5.01,0.00,21.6,20.0,00.0,30.6,23.1,07.8,0000.0,0003.79,0000.76,0000.44
2022-12-03 01:02:00,,0825.5,5.00,0.00,21.6,19.8,00.0,30.6,23.0,07.8,0000.0,0003.22,0000.76,0000.44
2022-12-03 01:03:00,,0825.5,4.99,0.00,21.5,19.6,00.0,30.6,23.0,07.9,0000.0,0003.22,0000.75,0000.45
2022-12-03 01:04:00,,0825.5,5.00,0.00,21.4,19.7,00.0,30.5,23.0,07.9,0000.0,0003.36,0000.77,0000.46
2022-12-03 01:05:00,,0825.5,5.01,0.00,21.5,20.7,00.0,30.5,23.3,07.9,0000.0,0002.29,0000.77,0000.45
2022-12-03 01:06:00,,0825.5,4.99,0.00,21.6,21.7,00.0,30.5,23.6,07.8,0000.0,0002.20,0000.77,0000.45
2022-12-03 01:07:00,,0825.4,5.00,0.00,21.8,22.1,00.0,30.5,23.8,07.7,0000.0,0002.80,0000.82,0000.45
2022-12-03 01:08:00,,0825.5,4.99,0.00,21.8,21.5,00.0,30.6,23.7,07.6,0000.0,0002.89,0000.85,0000.46
2022-12-03 01:09:00,,0825.5,4.99,0.00,21.8,21.1,00.0,30.6,23.5,07.6,0000.0,0002.58,0000.79,0000.46
2022-12-03 01:10:00,,0825.6,5.00,0.00,21.7,20.6,00.0,30.6,23.4,07.7,0000.0,0002.56,0000.79,0000.47
2022-12-03 01:11:00,,0825.5,5.01,0.00,21.7,20.3,00.0,30.6,23.2,07.7,0000.0,0002.62,0000.81,0000.47
2022-12-03 01:12:00,,0825.6,5.01,0.00,21.6,20.0,00.0,30.6,23.1,07.7,0000.0,0002.63,0000.82,0000.47
2022-12-03 01:13:00,,0825.6,5.00,0.00,21.5,19.7,00.0,30.6,23.0,07.8,0000.0,0002.49,0000.79,0000.47
2022-12-03 01:14:00,,0825.6,5.00,0.00,21.5,20.1,00.0,30.5,23.2,07.8,0000.0,0002.52,0000.81,0000.47
2022-12-03 01:15:00,,0825.7,5.00,0.00,21.6,21.3,00.0,30.5,23.5,07.8,0000.0,0003.13,0000.81,0000.47
2022-12-03 01:16:00,,0825.6,5.00,0.00,21.8,22.1,00.0,30.5,23.8,07.8,0000.0,0003.29,0000.85,0000.47
2022-12-03 01:17:00,,0825.7,4.99,0.00,21.8,21.8,00.0,30.6,23.8,07.7,0000.0,0003.31,0000.85,0000.47
2022-12-03 01:18:00,,0825.8,4.99,0.00,21.8,21.3,00.0,30.6,23.7,07.6,0000.0,0002.73,0000.83,0000.48
2022-12-03 01:19:00,,0825.6,5.01,0.00,21.8,20.8,00.0,30.7,23.5,07.8,0000.0,0002.54,0000.80,0000.48
2022-12-03 01:20:00,,0825.7,5.01,0.00,21.7,20.4,00.0,30.7,23.4,07.6,0000.0,0002.63,0000.84,0000.48
2022-12-03 01:21:00,,0825.6,5.01,0.00,21.7,20.1,00.0,30.7,23.2,07.7,0000.0,0002.71,0000.90,0000.48
2022-12-03 01:22:00,,0825.7,5.00,0.00,21.6,19.8,00.0,30.6,23.1,07.8,0000.0,0002.78,0000.95,0000.49
2022-12-03 01:23:00,,0825.7,5.00,0.00,21.6,20.1,00.0,30.6,23.2,07.8,0000.0,0002.89,0000.96,0000.50
2022-12-03 01:24:00,,0825.8,4.99,0.00,21.7,21.2,00.0,30.5,23.5,07.7,0000.0,0004.18,0000.97,0000.50
2022-12-03 01:25:00,,0825.8,5.02,0.00,21.8,22.1,00.0,30.5,23.8,07.7,0000.0,0005.22,0000.99,0000.51
2022-12-03 01:26:00,,0825.6,4.99,0.00,21.9,22.0,00.0,30.6,23.9,07.7,0000.0,0004.97,0000.98,0000.52
2022-12-03 01:27:00,,0825.7,4.99,0.00,21.9,21.4,00.0,30.7,23.7,07.6,0000.0,0005.65,0000.94,0000.52
2022-12-03 01:28:00,,0825.6,5.01,0.00,21.8,20.9,00.0,30.7,23.5,07.6,0000.0,0005.80,0000.97,0000.52
2022-12-03 01:29:00,,0825.7,5.00,0.00,21.8,20.4,00.0,30.7,23.4,07.7,0000.0,0005.86,0001.01,0000.53
2022-12-03 01:30:00,,0825.6,5.00,0.00,21.7,20.1,00.0,30.7,23.3,07.7,0000.0,0006.01,0001.06,0000.54
2022-12-03 01:31:00,,0825.7,5.00,0.00,21.6,19.8,00.0,30.7,23.1,07.7,0000.0,0005.98,0001.06,0000.53
2022-12-03 01:32:00,,0825.6,5.01,0.00,21.6,20.1,00.0,30.6,23.2,07.8,0000.0,0005.89,0001.01,0000.53
2022-12-03 01:33:00,,0825.6,4.99,0.00,21.7,21.1,00.0,30.6,23.5,07.8,0000.0,0005.92,0000.97,0000.52
2022-12-03 01:34:00,,0825.6,5.00,0.00,21.8,22.0,00.0,30.6,23.8,07.8,0000.0,0006.13,0000.97,0000.52
2022-12-03 01:35:00,,0825.8,4.99,0.00,21.9,21.9,00.0,30.6,23.9,07.7,0000.0,0005.15,0001.00,0000.52
2022-12-03 01:36:00,,0825.5,5.00,0.00,21.9,21.3,00.0,30.7,23.7,07.8,0000.0,0004.80,0000.98,0000.52
2022-12-03 01:37:00,,0825.6,5.00,0.00,21.8,20.8,00.0,30.7,23.6,07.7,0000.0,0005.03,0000.96,0000.51
2022-12-03 01:38:00,,0825.6,4.99,0.00,21.8,20.4,00.0,30.7,23.4,07.8,0000.0,0004.93,0000.96,0000.51
2022-12-03 01:39:00,,0825.5,5.01,0.00,21.7,20.0,00.0,30.7,23.3,07.8,0000.0,0006.50,0000.94,0000.50
2022-12-03 01:40:00,,0825.6,5.01,0.00,21.7,20.2,00.0,30.7,23.3,07.8,0000.0,0006.78,0000.94,0000.50
2022-12-03 01:41:00,,0825.7,5.00,0.00,21.8,21.2,00.0,30.6,23.6,07.7,0000.0,0006.70,0000.92,0000.50
2022-12-03 01:42:00,,0825.6,5.00,0.00,21.9,22.2,00.0,30.6,23.9,07.7,0000.0,0006.72,0000.91,0000.50
2022-12-03 01:43:00,,0825.6,5.00,0.00,22.0,22.0,00.0,30.7,23.9,07.7,0000.0,0006.74,0000.93,0000.50
2022-12-03 01:44:00,,0825.5,4.98,0.00,22.0,21.4,00.0,30.7,23.8,07.7,0000.0,0006.68,0000.93,0000.50
2022-12-03 01:45:00,,0825.7,5.02,0.00,21.9,20.9,00.0,30.7,23.6,07.7,0000.0,0006.38,0000.90,0000.50
2022-12-03 01:46:00,,0825.6,5.00,0.00,21.8,20.4,00.0,30.8,23.4,07.7,0000.0,0006.25,0000.86,0000.49
2022-12-03 01:47:00,,0825.8,4.99,0.00,21.8,20.0,00.0,30.7,23.2,07.8,0000.0,0005.23,0000.87,0000.50
2022-12-03 01:48:00,,0825.8,5.02,0.00,21.7,20.3,00.0,30.7,23.3,07.8,0000.0,0004.83,0000.89,0000.50
2022-12-03 01:49:00,,0825.6,4.99,0.00,21.8,21.3,00.0,30.7,23.6,07.8,0000.0,0003.91,0000.89,0000.50
2022-12-03 01:50:00,,0825.8,5.00,0.00,21.9,22.2,00.0,30.6,23.9,07.7,0000.0,0003.23,0000.88,0000.51
2022-12-03 01:51:00,,0825.7,4.99,0.00,22.0,22.0,00.0,30.7,23.9,07.7,0000.0,0003.34,0000.88,0000.51
2022-12-03 01:52:00,,0825.7,5.00,0.00,22.0,21.4,00.0,30.8,23.7,07.8,0000.0,0003.32,0000.87,0000.51
2022-12-03 01:53:00,,0825.7,5.00,0.00,21.9,20.9,00.0,30.8,23.6,07.7,0000.0,0003.28,0000.86,0000.52
2022-12-03 01:54:00,,0825.7,5.00,0.00,21.9,20.4,00.0,30.8,23.4,07.7,0000.0,0003.21,0000.84,0000.52
2022-12-03 01:55:00,,0825.7,4.99,0.00,21.8,20.1,00.0,30.8,23.3,07.8,0000.0,0003.18,0000.83,0000.53
2022-12-03 01:56:00,,0825.8,5.00,0.00,21.7,19.9,00.0,30.8,23.2,07.8,0000.0,0003.27,0000.86,0000.54
2022-12-03 01:57:00,,0825.6,5.01,0.00,21.7,20.7,00.0,30.7,23.4,07.9,0000.0,0003.40,0000.87,0000.54
2022-12-03 01:58:00,,0825.8,5.00,0.00,21.9,21.8,00.0,30.6,23.8,07.8,0000.0,0003.35,0000.84,0000.53
2022-12-03 01:59:00,,0825.7,5.00,0.00,22.0,22.3,00.0,30.7,24.0,07.8,0000.0,0004.36,0000.83,0000.54
